Location: Ab? ar R?sh Ba?r?
(24.1861°N, 32.8847°E)
Time: 21:41:33
(UTC+00:00)

H-2A R/B - Pass Details

Date: 01 June 2022
Orbit: 576 x 652 km, 98.5° (Epoch: 03 July)

Event Time Altitude Azimuth Distance (km) Brightness Sun altitude
Rises 17:30:18 0° 18° (NNE) 2,801 5.6 -12.5°
Reaches altitude 10° 17:32:28 10° 23° (NNE) 1,907 4.7 -12.9°
Maximum altitude 17:36:31 56° 101° (ESE) 706 2.0 -13.7°
Drops below altitude 10° 17:40:38 10° 180° (S) 1,938 4.3 -14.5°
Enters shadow 17:41:53 - 183° (S) 2,450 4.8 -14.7°
